Back to catalog

STARLINK-3829

AliveCommunicationsVLEO
NORAD 52348·PAYLOAD·🇺🇸 United States

Launched Apr 29, 2022 from Cape Canaveral Space Force Station

Loading…

Next Passes (next 24 hours)

TLE

FreshSource: CelesTrak SupGP

Epoch: Sep 14, 2026, 14:48 UTC

1 52348C 22045T   26257.61715278 -.00031555  00000+0 -90270-3 0  2572
2 52348  53.1595  58.4504 0001222  93.6460 271.5387 15.35418220    18

Track STARLINK-3829 in real time with AllMySat

Download on the App Store